YMF208 YBBN-YSSY

Flight info

Callsign YMF208
Flight time N/A
Altitude 40000
Route SANEG H91 IGDAM H652 BOREE
Aircraft MD11/H-SDE1E2E3FGHIJ2J3J4J5M1RWXY/LB1D1

Departure

Time 2026-05-07 06:48
Airport Brisbane International Airport (YBBN)

Arrival

Time N/A
Airport Sydney Kingsford Smith International Airport (YSSY)
Time Latitude Longitude Altitude Speed Heading
2026-05-07 06:41 -27.38094 153.12462 24 ft 0 kts 118°
2026-05-07 06:45 -27.38095 153.12463 25 ft 1 kts 118°
2026-05-07 06:45 -27.38112 153.12500 25 ft 11 kts 118°
2026-05-07 06:45 -27.38123 153.12529 25 ft 7 kts 108°
2026-05-07 06:45 -27.38121 153.12571 25 ft 11 kts 62°
2026-05-07 06:46 -27.38025 153.12650 25 ft 23 kts 27°
2026-05-07 06:46 -27.37885 153.12739 25 ft 22 kts 53°
2026-05-07 06:46 -27.37783 153.12883 25 ft 28 kts 30°
2026-05-07 06:46 -27.37586 153.12996 25 ft 35 kts 26°
2026-05-07 06:47 -27.37360 153.13122 25 ft 36 kts 28°
2026-05-07 06:47 -27.37297 153.13281 25 ft 23 kts 106°
2026-05-07 06:47 -27.37395 153.13423 25 ft 25 kts 160°
2026-05-07 06:47 -27.37576 153.13377 25 ft 37 kts 207°
2026-05-07 06:48 -27.38089 153.13068 25 ft 129 kts 208°
2026-05-07 06:48 -27.39083 153.12479 165 ft 184 kts 209°
2026-05-07 06:48 -27.40191 153.11882 1192 ft 175 kts 209°
2026-05-07 06:48 -27.41203 153.11324 2314 ft 164 kts 210°
2026-05-07 06:49 -27.42246 153.10927 3173 ft 163 kts 188°
2026-05-07 06:49 -27.43421 153.11065 3745 ft 185 kts 168°
2026-05-07 06:49 -27.44693 153.11641 4224 ft 210 kts 160°
2026-05-07 06:49 -27.46073 153.12440 4798 ft 234 kts 154°
2026-05-07 06:50 -27.47492 153.13403 5756 ft 244 kts 152°
2026-05-07 06:50 -27.48967 153.14349 6691 ft 251 kts 162°
2026-05-07 06:50 -27.50652 153.14827 7555 ft 257 kts 184°
2026-05-07 06:50 -27.52469 153.14642 8250 ft 271 kts 197°
2026-05-07 06:51 -27.53324 153.14421 8608 ft 278 kts 200°